Location: ?????
(33.6267°N, 35.4675°E)
Time: 21:15:26
(UTC+00:00)

NOSS 2-3 (C) - Pass Details

Date: 12 November 2019
Orbit: 594 x 1618 km, 63.4° (Epoch: 04 December)

Event Time Altitude Azimuth Distance (km) Brightness Sun altitude
Rises 15:33:10 0° 184° (S) 2,825 7.2 -11.9°
Reaches altitude 10° 15:35:35 10° 172° (S) 1,915 6.1 -12.4°
Maximum altitude 15:39:11 28° 112° (ESE) 1,151 4.5 -13.1°
Enters shadow 15:41:00 21° 74° (ENE) 1,415 4.8 -13.5°
